EW9309 Weather Reports


time (UTC)temp
C
wind
direction
speed
KPH
gust
KPH
rain 1hr
cm
rain 24hr
cm
rain mn
cm
humidity
%
barometer
mb
20260507143027 20 0 0.0 0.0 0.00 0.00 0.00 33 1014.0
20260507142509 20 0 0.0 0.0 0.00 0.00 0.00 35 1014.1
20260507142011 20 0 0.0 0.0 0.00 0.00 0.00 37 1014.1
20260507141528 19 0 0.0 0.0 0.00 0.00 0.00 37 1013.9
20260507141008 19 0 0.0 0.0 0.00 0.00 0.00 38 1013.9
20260507140511 18 0 0.0 0.0 0.00 0.00 0.00 40 1013.9
20260507140030 18 0 0.0 0.0 0.00 0.00 0.00 41 1013.9
20260507135508 18 0 0.0 0.0 0.00 0.00 0.00 41 1013.8
20260507135011 17 0 0.0 0.0 0.00 0.00 0.00 42 1013.8
20260507134531 17 0 0.0 1.6 0.00 0.00 0.00 42 1013.8
20260507134008 16 0 0.0 1.6 0.00 0.00 0.00 42 1013.7
20260507133513 16 0 0.0 1.6 0.00 0.00 0.00 42 1013.7
20260507133033 16 0 0.0 1.6 0.00 0.00 0.00 43 1013.7
20260507132510 16 0 0.0 1.6 0.00 0.00 0.00 43 1013.7
20260507132010 15 360 0.0 1.6 0.00 0.00 0.00 42 1013.7
20260507131527 15 0 0.0 1.6 0.00 0.00 0.00 42 1013.5
20260507131012 15 0 0.0 1.6 0.00 0.00 0.00 42 1013.5
20260507130518 15 0 0.0 0.0 0.00 0.00 0.00 42 1013.5
20260507130037 15 0 0.0 0.0 0.00 0.00 0.00 42 1013.5
20260507125513 15 0 0.0 1.6 0.00 0.00 0.00 41 1013.6
20260507125008 15 0 0.0 1.6 0.00 0.00 0.00 41 1013.5
20260507124530 15 0 0.0 0.0 0.00 0.00 0.00 40 1013.6
20260507124009 15 0 0.0 1.6 0.00 0.00 0.00 41 1013.5
20260507123511 15 0 0.0 1.6 0.00 0.00 0.00 40 1013.5
20260507123030 16 0 0.0 1.6 0.00 0.00 0.00 40 1013.4
20260507122508 16 0 0.0 0.0 0.00 0.00 0.00 39 1013.4
20260507122013 16 0 0.0 1.6 0.00 0.00 0.00 39 1013.4
20260507121528 16 0 0.0 1.6 0.00 0.00 0.00 39 1013.4
20260507121011 16 360 0.0 1.6 0.00 0.00 0.00 40 1013.4
20260507120511 16 0 0.0 1.6 0.00 0.00 0.00 39 1013.4
20260507120030 16 0 0.0 0.0 0.00 0.00 0.00 38 1013.3
20260507115509 16 0 0.0 0.0 0.00 0.00 0.00 38 1013.4
20260507115016 16 0 0.0 0.0 0.00 0.00 0.00 37 1013.5
20260507114529 16 0 0.0 0.0 0.00 0.00 0.00 36 1013.4
20260507114014 16 0 0.0 0.0 0.00 0.00 0.00 37 1013.4
20260507113511 16 0 0.0 0.0 0.00 0.00 0.00 36 1013.5
20260507113028 16 0 0.0 1.6 0.00 0.00 0.00 36 1013.6
20260507112509 17 0 0.0 1.6 0.00 0.00 0.00 36 1013.5
20260507112011 17 0 0.0 1.6 0.00 0.00 0.00 36 1013.4
20260507111528 17 0 0.0 4.8 0.00 0.00 0.00 36 1013.4
20260507111010 17 0 0.0 4.8 0.00 0.00 0.00 36 1013.5
20260507110510 17 0 0.0 4.8 0.00 0.00 0.00 38 1013.5
20260507110030 17 0 0.0 1.6 0.00 0.00 0.00 38 1013.6
20260507105510 17 0 0.0 0.0 0.00 0.00 0.00 37 1013.7
20260507105010 17 0 0.0 0.0 0.00 0.00 0.00 37 1013.6
20260507104529 17 0 0.0 0.0 0.00 0.00 0.00 37 1013.7
20260507104010 17 0 0.0 0.0 0.00 0.00 0.00 37 1013.6
20260507103510 17 0 0.0 1.6 0.00 0.00 0.00 36 1013.8
20260507103031 18 0 0.0 1.6 0.00 0.00 0.00 36 1013.9
20260507102508 18 0 0.0 3.2 0.00 0.00 0.00 36 1013.9
20260507102009 18 0 0.0 3.2 0.00 0.00 0.00 35 1013.9
20260507101528 18 0 0.0 1.6 0.00 0.00 0.00 35 1013.9
20260507101008 18 0 0.0 3.2 0.00 0.00 0.00 34 1014.0
20260507100510 18 0 0.0 3.2 0.00 0.00 0.00 34 1014.1
20260507100034 18 0 0.0 3.2 0.00 0.00 0.00 34 1014.0
20260507095511 18 360 0.0 1.6 0.00 0.00 0.00 34 1014.0
20260507095011 18 0 0.0 1.6 0.00 0.00 0.00 35 1014.0
20260507094528 18 0 0.0 3.2 0.00 0.00 0.00 35 1014.0
20260507094010 18 0 0.0 3.2 0.00 0.00 0.00 35 1014.2
20260507093510 18 0 0.0 4.8 0.00 0.00 0.00 35 1014.0
20260507093029 18 0 0.0 4.8 0.00 0.00 0.00 35 1014.0
20260507092515 18 0 0.0 3.2 0.00 0.00 0.00 36 1014.1
20260507092011 18 360 0.0 3.2 0.00 0.00 0.00 36 1014.0
20260507091528 18 0 0.0 3.2 0.00 0.00 0.00 36 1014.0
20260507091011 18 0 0.0 3.2 0.00 0.00 0.00 36 1013.9
20260507090514 18 0 0.0 1.6 0.00 0.00 0.00 36 1013.9
20260507090031 18 0 0.0 1.6 0.00 0.00 0.00 36 1013.9
20260507085512 18 0 0.0 1.6 0.00 0.00 0.00 35 1013.9
20260507085010 18 0 0.0 1.6 0.00 0.00 0.00 35 1013.8
20260507084527 18 0 0.0 0.0 0.00 0.00 0.00 35 1013.9
20260507084013 18 0 0.0 0.0 0.00 0.00 0.00 35 1013.9
20260507083508 18 0 0.0 0.0 0.00 0.00 0.00 34 1014.0
20260507083029 18 0 0.0 0.0 0.00 0.00 0.00 34 1014.0
20260507082508 18 0 0.0 0.0 0.00 0.00 0.00 34 1014.0
20260507082010 18 0 0.0 0.0 0.00 0.00 0.00 33 1014.0
20260507081528 18 0 0.0 0.0 0.00 0.00 0.00 33 1013.9
20260507081008 19 0 0.0 0.0 0.00 0.00 0.00 33 1014.0
20260507080509 19 0 0.0 0.0 0.00 0.00 0.00 33 1014.1
20260507080037 19 0 0.0 0.0 0.00 0.00 0.00 33 1014.1
20260507075510 19 0 0.0 0.0 0.00 0.00 0.00 33 1014.1
20260507075009 19 0 0.0 0.0 0.00 0.00 0.00 33 1014.2
20260507074529 19 0 0.0 0.0 0.00 0.00 0.00 33 1014.2
20260507074012 20 0 0.0 0.0 0.00 0.00 0.00 33 1014.1
20260507073511 20 0 0.0 1.6 0.00 0.00 0.00 33 1014.2
20260507073028 20 0 0.0 1.6 0.00 0.00 0.00 32 1014.1
20260507072508 20 0 0.0 1.6 0.00 0.00 0.00 32 1014.2
20260507072012 20 0 0.0 1.6 0.00 0.00 0.00 31 1014.2
20260507071557 20 0 0.0 1.6 0.00 0.00 0.00 31 1014.2
20260507071008 20 0 0.0 1.6 0.00 0.00 0.00 31 1014.1
20260507070514 20 0 0.0 1.6 0.00 0.00 0.00 31 1014.1
20260507070032 20 0 0.0 1.6 0.00 0.00 0.00 31 1014.1
20260507065508 20 0 0.0 0.0 0.00 0.00 0.00 31 1014.2
20260507065010 20 0 0.0 0.0 0.00 0.00 0.00 30 1014.1
20260507064527 20 0 0.0 0.0 0.00 0.00 0.00 30 1014.2
20260507064013 21 0 0.0 1.6 0.00 0.00 0.00 30 1014.1
20260507063510 21 0 0.0 1.6 0.00 0.00 0.00 30 1014.2
20260507063029 21 0 0.0 1.6 0.00 0.00 0.00 30 1014.2
20260507062516 21 0 0.0 0.0 0.00 0.00 0.00 30 1014.2
20260507062010 21 0 0.0 0.0 0.00 0.00 0.00 29 1014.2
20260507061527 21 0 0.0 0.0 0.00 0.00 0.00 29 1014.2
20260507061010 21 0 0.0 0.0 0.00 0.00 0.00 28 1014.4
20260507060510 21 0 0.0 0.0 0.00 0.00 0.00 28 1014.3
20260507060035 22 0 0.0 0.0 0.00 0.00 0.00 28 1014.3
20260507055509 22 0 0.0 0.0 0.00 0.00 0.00 27 1014.3
20260507055015 22 0 0.0 0.0 0.00 0.00 0.00 27 1014.3
20260507054528 22 0 0.0 0.0 0.00 0.00 0.00 27 1014.2
20260507054012 22 0 0.0 0.0 0.00 0.00 0.00 27 1014.2
20260507053509 22 0 0.0 0.0 0.00 0.00 0.00 27 1014.3
20260507053039 22 0 0.0 0.0 0.00 0.00 0.00 26 1014.1
20260507052510 22 0 0.0 0.0 0.00 0.00 0.00 26 1014.1
20260507052011 22 0 0.0 1.6 0.00 0.00 0.00 26 1014.1
20260507051539 23 0 0.0 1.6 0.00 0.00 0.00 25 1014.1
20260507051009 23 0 0.0 1.6 0.00 0.00 0.00 25 1013.9
20260507050514 23 360 0.0 1.6 0.00 0.00 0.00 25 1014.0
20260507050035 23 0 0.0 0.0 0.00 0.00 0.00 25 1013.9
20260507045510 23 0 0.0 1.6 0.00 0.00 0.00 24 1013.9
20260507045010 23 0 0.0 3.2 0.00 0.00 0.00 24 1013.8
20260507044529 23 0 0.0 3.2 0.00 0.00 0.00 24 1013.8
20260507044009 23 360 0.0 3.2 0.00 0.00 0.00 24 1013.8
20260507043512 23 0 0.0 3.2 0.00 0.00 0.00 24 1013.8
20260507043028 23 0 0.0 0.0 0.00 0.00 0.00 24 1013.8
20260507042509 24 0 0.0 1.6 0.00 0.00 0.00 24 1013.7
20260507042011 24 0 0.0 3.2 0.00 0.00 0.00 23 1013.6
20260507041529 24 0 0.0 3.2 0.00 0.00 0.00 23 1013.6
20260507041010 24 0 0.0 3.2 0.00 0.00 0.00 23 1013.6
20260507040512 25 0 0.0 1.6 0.00 0.00 0.00 24 1013.6
20260507040030 25 0 0.0 1.6 0.00 0.00 0.00 23 1013.5
20260507035509 25 0 0.0 1.6 0.00 0.00 0.00 23 1013.4
20260507035008 25 0 0.0 1.6 0.00 0.00 0.00 23 1013.4
20260507034535 25 0 0.0 1.6 0.00 0.00 0.00 23 1013.4
20260507034010 25 0 0.0 0.0 0.00 0.00 0.00 23 1013.3
20260507033509 25 0 0.0 0.0 0.00 0.00 0.00 23 1013.4
20260507033038 25 0 0.0 1.6 0.00 0.00 0.00 23 1013.3
20260507032509 25 0 0.0 3.2 0.00 0.00 0.00 22 1013.2
20260507032012 26 0 0.0 3.2 0.00 0.00 0.00 22 1013.1
20260507031529 26 0 0.0 3.2 0.00 0.00 0.00 22 1013.1
20260507031008 26 263 0.0 4.8 0.00 0.00 0.00 22 1012.9
20260507030508 26 0 0.0 4.8 0.00 0.00 0.00 22 1012.8
20260507030030 26 263 0.0 3.2 0.00 0.00 0.00 22 1012.8
20260507025510 26 0 0.0 3.2 0.00 0.00 0.00 22 1012.6
20260507025012 26 0 0.0 1.6 0.00 0.00 0.00 21 1012.7
20260507024530 26 0 0.0 3.2 0.00 0.00 0.00 21 1012.6
20260507024009 26 0 0.0 3.2 0.00 0.00 0.00 21 1012.5
20260507023511 27 0 0.0 3.2 0.00 0.00 0.00 21 1012.5
20260507023034 27 0 0.0 4.8 0.00 0.00 0.00 21 1012.6
20260507022511 27 263 0.0 4.8 0.00 0.00 0.00 20 1012.4
20260507022009 27 263 1.6 6.4 0.00 0.00 0.00 20 1012.4
20260507021531 27 263 1.6 6.4 0.00 0.00 0.00 20 1012.3
20260507021010 27 263 0.0 4.8 0.00 0.00 0.00 20 1012.3
20260507020512 27 269 1.6 4.8 0.00 0.00 0.00 20 1012.3
20260507020030 27 269 0.0 6.4 0.00 0.00 0.00 20 1012.3
20260507015508 27 269 1.6 11.3 0.00 0.00 0.00 20 1012.2
20260507015012 28 266 3.2 11.3 0.00 0.00 0.00 20 1012.2
20260507014529 28 262 1.6 11.3 0.00 0.00 0.00 19 1012.2
20260507014011 28 271 1.6 9.7 0.00 0.00 0.00 19 1012.2
20260507013508 28 266 1.6 9.7 0.00 0.00 0.00 19 1012.2
20260507013029 28 254 1.6 9.7 0.00 0.00 0.00 20 1012.2
20260507012509 28 239 1.6 6.4 0.00 0.00 0.00 19 1012.1
20260507012012 28 236 3.2 6.4 0.00 0.00 0.00 19 1012.2
20260507011533 28 217 1.6 9.7 0.00 0.00 0.00 19 1012.3
20260507011010 28 255 3.2 11.3 0.00 0.00 0.00 19 1012.2
20260507010511 28 246 4.8 11.3 0.00 0.00 0.00 19 1012.2
20260507010034 29 0 1.6 8.0 0.00 0.00 0.00 19 1012.2
20260507005508 28 0 1.6 12.9 0.00 0.00 0.00 19 1012.3
20260507005015 28 213 3.2 12.9 0.00 0.00 0.00 18 1012.3
20260507004536 29 282 3.2 12.9 0.00 0.00 0.00 18 1012.2
20260507004010 29 232 3.2 11.3 0.00 0.00 0.00 18 1012.1
20260507003512 29 283 3.2 11.3 0.00 0.00 0.00 18 1012.2
20260507003029 29 0 1.6 6.4 0.00 0.00 0.00 19 1012.2
20260507002512 29 275 0.0 11.3 0.00 0.00 0.00 18 1012.2
20260507002017 29 279 3.2 12.9 0.00 0.00 0.00 19 1012.3
20260507001526 29 0 3.2 12.9 0.00 0.00 0.00 19 1012.2
20260507001012 29 269 1.6 14.5 0.00 0.00 0.00 19 1012.3
20260507000509 30 341 3.2 14.5 0.00 0.00 0.00 18 1012.3
20260507000028 30 0 1.6 6.4 0.00 0.00 0.00 18 1012.2
20260506235511 30 297 1.6 6.4 0.00 0.00 0.00 18 1012.3
20260506235008 29 297 0.0 8.0 0.00 0.00 0.00 18 1012.4
20260506234530 29 294 0.0 9.7 0.00 0.00 0.00 18 1012.5
20260506234011 30 284 1.6 9.7 0.00 0.00 0.00 18 1012.6
20260506233509 30 256 3.2 16.1 0.00 0.00 0.00 18 1012.5
20260506233028 30 271 4.8 16.1 0.00 0.00 0.00 18 1012.5
20260506232509 30 360 4.8 11.3 0.00 0.00 0.00 17 1012.5
20260506232009 30 312 3.2 11.3 0.00 0.00 0.00 17 1012.6
20260506231527 30 297 1.6 9.7 0.00 0.00 0.00 18 1012.6
20260506231008 30 0 0.0 9.7 0.00 0.00 0.00 18 1012.7
20260506230509 30 292 4.8 9.7 0.00 0.00 0.00 17 1012.8
20260506230028 30 236 3.2 8.0 0.00 0.00 0.00 17 1012.8
20260506225508 30 0 1.6 11.3 0.00 0.00 0.00 17 1012.9
20260506225015 30 36 3.2 14.5 0.00 0.00 0.00 17 1012.9
20260506224526 30 281 4.8 17.7 0.00 0.00 0.00 18 1012.9
20260506224011 30 246 6.4 17.7 0.00 0.00 0.00 17 1012.9
20260506223512 30 269 1.6 11.3 0.00 0.00 0.00 19 1013.0
20260506223032 30 27 1.6 9.7 0.00 0.00 0.00 19 1013.0
20260506222508 30 22 3.2 11.3 0.00 0.00 0.00 18 1013.1
20260506222013 30 299 1.6 11.3 0.00 0.00 0.00 18 1013.1
20260506221530 30 238 4.8 11.3 0.00 0.00 0.00 18 1013.1
20260506221014 30 238 1.6 9.7 0.00 0.00 0.00 18 1013.2
20260506220507 30 38 3.2 9.7 0.00 0.00 0.00 18 1013.3
20260506220036 30 286 0.0 9.7 0.00 0.00 0.00 18 1013.4
20260506215511 30 0 1.6 14.5 0.00 0.00 0.00 19 1013.5
20260506215012 30 235 3.2 14.5 0.00 0.00 0.00 18 1013.6
20260506214528 30 23 4.8 14.5 0.00 0.00 0.00 18 1013.6
20260506214009 30 278 3.2 12.9 0.00 0.00 0.00 17 1013.7
20260506213509 30 243 1.6 11.3 0.00 0.00 0.00 19 1013.9
20260506213031 30 340 1.6 12.9 0.00 0.00 0.00 18 1013.9
20260506212507 30 333 3.2 12.9 0.00 0.00 0.00 17 1014.0
20260506212009 30 360 4.8 12.9 0.00 0.00 0.00 19 1014.1
20260506211529 30 335 3.2 6.4 0.00 0.00 0.00 17 1014.2
20260506211008 30 328 1.6 11.3 0.00 0.00 0.00 19 1014.3
20260506210512 30 327 3.2 11.3 0.00 0.00 0.00 18 1014.4
20260506210030 29 250 0.0 12.9 0.00 0.00 0.00 19 1014.4
20260506205510 29 268 1.6 12.9 0.00 0.00 0.00 19 1014.5
20260506205010 29 249 3.2 12.9 0.00 0.00 0.00 18 1014.5
20260506204529 29 307 4.8 12.9 0.00 0.00 0.00 18 1014.5
20260506204015 29 329 3.2 12.9 0.00 0.00 0.00 18 1014.7
20260506203516 29 0 1.6 12.9 0.00 0.00 0.00 18 1014.6
20260506203029 30 252 3.2 11.3 0.00 0.00 0.00 19 1014.8
20260506202508 29 103 0.0 6.4 0.00 0.00 0.00 20 1014.7
20260506202017 28 0 0.0 9.7 0.00 0.00 0.00 20 1015.0
20260506201532 28 0 1.6 9.7 0.00 0.00 0.00 21 1015.0
20260506201010 28 273 1.6 11.3 0.00 0.00 0.00 19 1015.1
20260506200508 28 274 3.2 11.3 0.00 0.00 0.00 21 1015.1
20260506200028 28 328 1.6 8.0 0.00 0.00 0.00 21 1015.1
20260506195509 28 0 1.6 14.5 0.00 0.00 0.00 21 1015.2
20260506195011 27 342 1.6 14.5 0.00 0.00 0.00 22 1015.2
20260506194530 27 27 3.2 14.5 0.00 0.00 0.00 21 1015.3
20260506194010 27 223 3.2 14.5 0.00 0.00 0.00 21 1015.4
20260506193512 27 271 3.2 11.3 0.00 0.00 0.00 24 1015.4
20260506193029 27 273 3.2 11.3 0.00 0.00 0.00 22 1015.5
20260506192511 27 315 3.2 12.9 0.00 0.00 0.00 21 1015.6
20260506192012 27 267 4.8 17.7 0.00 0.00 0.00 23 1015.6
20260506191528 27 311 4.8 17.7 0.00 0.00 0.00 22 1015.6
20260506191007 27 237 3.2 11.3 0.00 0.00 0.00 21 1015.7
20260506190514 27 298 1.6 6.4 0.00 0.00 0.00 22 1015.7
20260506190028 27 222 0.0 11.3 0.00 0.00 0.00 22 1015.7
20260506185509 26 215 1.6 20.9 0.00 0.00 0.00 23 1015.8
20260506185008 27 240 8.0 20.9 0.00 0.00 0.00 22 1015.9
20260506184528 27 153 3.2 12.9 0.00 0.00 0.00 24 1015.9
20260506184013 26 256 3.2 12.9 0.00 0.00 0.00 23 1015.9
20260506183508 26 0 1.6 14.5 0.00 0.00 0.00 26 1015.9
20260506183030 26 292 3.2 14.5 0.00 0.00 0.00 25 1016.0
20260506182507 26 244 4.8 14.5 0.00 0.00 0.00 24 1016.2
20260506182009 26 229 1.6 6.4 0.00 0.00 0.00 25 1016.1
20260506181529 26 346 1.6 11.3 0.00 0.00 0.00 26 1016.3
20260506181011 26 344 4.8 11.3 0.00 0.00 0.00 25 1016.4
20260506180508 26 344 1.6 11.3 0.00 0.00 0.00 26 1016.3
20260506180027 26 262 3.2 12.9 0.00 0.00 0.00 27 1016.3
20260506175513 25 0 1.6 12.9 0.00 0.00 0.00 26 1016.3
20260506175017 25 281 3.2 12.9 0.00 0.00 0.00 28 1016.4
20260506174526 25 57 4.8 12.9 0.00 0.00 0.00 27 1016.3
20260506174008 25 21 4.8 12.9 0.00 0.00 0.00 27 1016.4
20260506173512 25 22 1.6 14.5 0.00 0.00 0.00 28 1016.4
20260506173030 25 275 1.6 14.5 0.00 0.00 0.00 30 1016.4
20260506172508 25 275 3.2 14.5 0.00 0.00 0.00 28 1016.4
20260506172007 25 267 3.2 11.3 0.00 0.00 0.00 29 1016.5
20260506171530 25 26 4.8 9.7 0.00 0.00 0.00 27 1016.4
20260506171009 25 344 0.0 6.4 0.00 0.00 0.00 29 1016.3
20260506170510 24 352 1.6 11.3 0.00 0.00 0.00 29 1016.3
20260506170029 24 0 1.6 11.3 0.00 0.00 0.00 31 1016.3
20260506165514 23 124 1.6 8.0 0.00 0.00 0.00 31 1016.2
20260506165009 23 262 0.0 9.7 0.00 0.00 0.00 31 1016.3
20260506164527 23 251 1.6 9.7 0.00 0.00 0.00 30 1016.3
20260506164010 23 277 0.0 9.7 0.00 0.00 0.00 31 1016.3
20260506163511 23 304 1.6 6.4 0.00 0.00 0.00 31 1016.3
20260506163026 23 281 1.6 6.4 0.00 0.00 0.00 31 1016.3
20260506162508 22 277 1.6 6.4 0.00 0.00 0.00 32 1016.2
20260506162011 22 275 1.6 6.4 0.00 0.00 0.00 33 1016.2
20260506161534 22 0 0.0 6.4 0.00 0.00 0.00 33 1016.2
20260506161009 22 262 1.6 6.4 0.00 0.00 0.00 34 1016.2
20260506160513 22 275 3.2 6.4 0.00 0.00 0.00 33 1016.3
20260506160028 22 261 3.2 6.4 0.00 0.00 0.00 35 1016.3
20260506155509 21 261 0.0 4.8 0.00 0.00 0.00 34 1016.3
20260506155009 21 261 0.0 4.8 0.00 0.00 0.00 34 1016.3
20260506154529 21 261 0.0 4.8 0.00 0.00 0.00 35 1016.2
20260506154019 21 0 1.6 4.8 0.00 0.00 0.00 35 1016.2
20260506153516 21 261 1.6 4.8 0.00 0.00 0.00 36 1016.3
20260506153028 20 261 0.0 3.2 0.00 0.00 0.00 37 1016.3
20260506152509 20 261 0.0 3.2 0.00 0.00 0.00 36 1016.3
20260506152013 20 261 0.0 3.2 0.00 0.00 0.00 37 1016.3
20260506151529 20 0 0.0 3.2 0.00 0.00 0.00 38 1016.2
20260506151010 19 261 1.6 3.2 0.00 0.00 0.00 38 1016.2
20260506150510 19 0 0.0 4.8 0.00 0.00 0.00 39 1016.2
20260506150030 18 0 0.0 4.8 0.00 0.00 0.00 39 1016.2
20260506145515 18 261 0.0 3.2 0.00 0.00 0.00 39 1016.2
20260506145011 18 261 0.0 3.2 0.00 0.00 0.00 40 1016.2
20260506144534 18 0 0.0 3.2 0.00 0.00 0.00 40 1016.2
20260506144007 18 261 0.0 3.2 0.00 0.00 0.00 42 1016.2
20260506143508 17 0 0.0 4.8 0.00 0.00 0.00 43 1016.0